Location: Bernay
(48.6766°N, 2.9386°E)
Time: 08:00:15
(UTC+00:00)

Cosmos 1452 Rocket - Pass Details

Date: 12 January 2026
Orbit: 762 x 771 km, 74.1° (Epoch: 16 February)

Event Time Altitude Azimuth Distance (km) Brightness Sun altitude
Rises 19:10:28 0° 213° (SSW) 3,221 7.2 -28.0°
Reaches altitude 10° 19:12:52 10° 217° (SW) 2,301 6.4 -28.4°
Maximum altitude 19:18:01 60° 297° (WNW) 883 3.9 -29.3°
Enters shadow 19:18:24 58° 318° (NW) 898 3.9 -29.4°
